Find Kosmos-1859

NORAD ID: 18120 Int'l Des: 1987-051 Owner: UNKS Country: SU operational
LEOCIRCULAR

实时位置

正在加载3D地球...

关于 Kosmos-1859

正在加载描述...

即将过境

Passes for default location (London). Set your location on the main map for personalized predictions.

高度历史

Loading altitude history...

两行轨道根数

1 18120U 87051H 26120.20800806 -.00000010 00000-0 32553-4 0 9992
2 18120 74.0023 85.1030 0056314 83.3462 24.9808 12.57955393784977
Epoch: Apr 30, 2026 • Age: 7 hours

当前状态

高度 1399.3 km
速度 7.19 km/s
星下点 64.38°N, 76.4°E
发射日期 Jun 16, 1987
运行时间 38.8 years
类型 other

技术详情

分类 Payload
质量 60.00 kg
干质量 60.00 kg
总质量 60.00 kg
长度 0.80 m
直径 0.80 m
跨度 0.80 m
形状 Poly
制造商 NPOPM
平台类型 Strela-1 11F625
阶段状态 In Orbit
所有者/国家 UNKS/SU

Most Searched